Home   Weather   Oshawa   Past weeks

Flag for Canada Past Weather in Oshawa, Ontario, Canada — Yesterday and Last 2 Weeks

Now
32 °F

Overcast.


Feels Like: 22 °F
Forecast: 33 / 43 °F
Wind: 15 mph from Southeast

Location: Toronto Buttonville

Current Time: Feb 21, 2017 at 2:52:20 am

Latest Report: Feb 21, 2017 at 2:00 am


Visibility: 15 mi

Pressure: 30.23 "Hg

Humidity: 69%

Dew Point: 23 °F

Location of OshawaLocation

Past Weather in Oshawa — Graph

°F

Oshawa Temperature Yesterday

Maximum temperature yesterday: 41 °F (at 2:00 pm)
Minimum temperature yesterday: 28 °F (at 7:00 am)
Average temperature yesterday: 34 °F

High & Low Weather Summary for the Past Weeks

 TemperatureHumidityPressure
High54 °F (Feb 18, 1:00 pm)100% (Feb 7, 8:00 pm)30.40 "Hg (Feb 7, 8:00 pm)
Low9 °F (Feb 9, 5:00 am)42% (Feb 9, 2:00 pm)29.23 "Hg (Feb 7, 10:00 pm)
Average28 °F74%29.86 "Hg
* Reported Feb 6 1:00 am — Feb 21 1:00 am, Oshawa, Weather by CustomWeather, © 2017

Note: Actual official high and low records may vary slightly from our data, if they occured in-between our weather recording intervals... More about our weather records

Advertising

Oshawa Weather History for the Previous 24 Hours

Scroll right to see more
 ConditionsComfort  
Time TempWeatherWind HumidityBarometerVisibility
1:00 am
Tue, Feb 21
32 °FPassing clouds.13 mph69%30.26 "Hg15 mi
12:00 am32 °FPassing clouds.10 mph69%30.28 "Hg15 mi
11:00 pm
Mon, Feb 20
30 °FPassing clouds.7 mph75%30.31 "Hg15 mi
10:00 pm30 °FChilly.5 mph75%30.33 "Hg15 mi
9:00 pm30 °FPassing clouds.5 mph75%30.37 "Hg15 mi
8:00 pm30 °FPassing clouds.7 mph80%30.37 "Hg15 mi
7:00 pm32 °FPassing clouds.6 mph75%30.39 "Hg15 mi
6:00 pm34 °FPassing clouds.10 mph70%30.37 "Hg15 mi
5:00 pm36 °FPartly sunny.9 mph65%30.36 "Hg15 mi
4:00 pm39 °FScattered clouds.9 mph61%30.37 "Hg15 mi
3:00 pm41 °FPartly sunny.3 mph42%30.36 "Hg15 mi
2:00 pm41 °FPassing clouds.5 mph42%30.36 "Hg15 mi
1:00 pm39 °FPassing clouds.7 mph45%30.36 "Hg15 mi
12:00 pm37 °FScattered clouds.3 mph52%30.38 "Hg15 mi
11:00 am36 °FPassing clouds.2 mph56%30.40 "Hg15 mi
10:00 am34 °FPassing clouds.5 mph65%30.39 "Hg15 mi
9:00 am32 °FPassing clouds.5 mph69%30.38 "Hg15 mi
8:00 am30 °FPassing clouds.6 mph80%30.36 "Hg15 mi
7:00 am28 °FClear.No wind80%30.33 "Hg15 mi
6:00 am30 °FClear.6 mph80%30.31 "Hg15 mi
5:00 am30 °FClear.8 mph80%30.28 "Hg15 mi
4:00 am32 °FClear.8 mph80%30.24 "Hg15 mi
3:00 am32 °FClear.7 mph87%30.22 "Hg15 mi
2:00 am34 °FPassing clouds.7 mph81%30.20 "Hg15 mi
Weather by CustomWeather, © 2017

See weather overviewHow to use our weather pages